TimeCDT,TemperatureF,Dew PointF,Humidity,Sea Level PressureIn,VisibilityMPH,Wind Direction,Wind SpeedMPH,Gust SpeedMPH,PrecipitationIn,Events,Conditions,WindDirDegrees,DateUTC
12:55 AM,48.0,43.9,86,29.94,10.0,NNW,5.8,-,N/A,,Scattered Clouds,340,2011-11-02 05:55:00
1:55 AM,47.3,44.8,91,29.96,10.0,WNW,8.1,-,N/A,,Mostly Cloudy,290,2011-11-02 06:55:00
2:55 AM,46.8,44.8,93,29.97,10.0,WNW,5.8,-,N/A,,Scattered Clouds,290,2011-11-02 07:55:00
3:55 AM,47.3,43.3,86,29.99,10.0,NW,6.9,-,N/A,,Partly Cloudy,320,2011-11-02 08:55:00
4:55 AM,48.0,41.9,79,30.01,10.0,NW,5.8,-,N/A,,Mostly Cloudy,320,2011-11-02 09:55:00
5:10 AM,48.2,42.8,82,30.02,10.0,NNW,9.2,-,N/A,,Light Drizzle,330,2011-11-02 10:10:00
5:46 AM,48.2,42.8,82,30.03,10.0,NNW,10.4,-,N/A,,Scattered Clouds,340,2011-11-02 10:46:00
5:55 AM,47.7,42.3,82,30.04,10.0,NNW,8.1,-,0.01,,Scattered Clouds,330,2011-11-02 10:55:00
6:07 AM,48.2,42.8,82,30.03,10.0,North,9.2,-,N/A,Rain,Light Rain,350,2011-11-02 11:07:00
6:21 AM,46.4,42.8,87,30.04,10.0,NW,6.9,-,N/A,,Mostly Cloudy,310,2011-11-02 11:21:00
6:35 AM,46.4,42.8,87,30.04,10.0,North,11.5,-,N/A,,Light Drizzle,350,2011-11-02 11:35:00
6:53 AM,46.4,44.6,93,30.04,10.0,North,5.8,-,N/A,,Partly Cloudy,350,2011-11-02 11:53:00
6:55 AM,46.4,44.6,93,30.04,10.0,North,10.4,-,N/A,,Overcast,350,2011-11-02 11:55:00
7:55 AM,46.4,44.6,93,30.07,10.0,North,9.2,-,N/A,,Overcast,360,2011-11-02 12:55:00
8:55 AM,46.4,42.8,87,30.07,10.0,NE,4.6,-,N/A,,Mostly Cloudy,40,2011-11-02 13:55:00
9:27 AM,48.2,41.0,76,30.08,10.0,North,4.6,-,N/A,,Overcast,360,2011-11-02 14:27:00
9:55 AM,46.4,41.0,81,30.08,10.0,North,8.1,-,N/A,,Overcast,10,2011-11-02 14:55:00
10:55 AM,46.4,42.8,87,30.09,10.0,North,8.1,-,N/A,,Overcast,360,2011-11-02 15:55:00
11:55 AM,46.4,42.8,87,30.10,10.0,North,11.5,-,N/A,,Overcast,350,2011-11-02 16:55:00
12:55 PM,44.6,44.6,100,30.08,7.0,North,8.1,-,N/A,Rain,Light Rain,360,2011-11-02 17:55:00
1:55 PM,42.8,42.8,100,30.10,7.0,North,13.8,19.6,N/A,Rain,Light Rain,350,2011-11-02 18:55:00
2:55 PM,41.0,41.0,100,30.19,5.0,North,17.3,28.8,N/A,Rain,Light Rain,350,2011-11-02 19:55:00
3:55 PM,39.2,39.2,100,30.12,7.0,North,10.4,-,N/A,Rain,Light Rain,360,2011-11-02 20:55:00
4:55 PM,39.2,39.2,100,30.14,7.0,NNW,4.6,-,N/A,Rain,Light Rain,330,2011-11-02 21:55:00
5:55 PM,39.2,39.2,100,30.17,7.0,NNE,6.9,-,N/A,Rain,Light Rain,30,2011-11-02 22:55:00
6:55 PM,39.2,39.2,100,30.19,7.0,NE,4.6,-,N/A,Rain,Light Rain,40,2011-11-02 23:55:00
7:47 PM,39.2,39.2,100,30.15,10.0,ESE,10.4,-,N/A,,Overcast,110,2011-11-03 00:47:00
7:55 PM,39.2,39.2,100,30.17,10.0,East,6.9,-,N/A,,Overcast,100,2011-11-03 00:55:00
8:29 PM,39.2,39.2,100,30.14,10.0,Calm,Calm,-,N/A,,Overcast,0,2011-11-03 01:29:00
8:55 PM,39.2,39.2,100,30.16,10.0,Calm,Calm,-,N/A,,Overcast,0,2011-11-03 01:55:00
9:01 PM,39.2,39.2,100,30.14,10.0,Calm,Calm,-,N/A,,Overcast,0,2011-11-03 02:01:00
9:55 PM,37.4,37.4,100,30.17,10.0,Calm,Calm,-,N/A,,Overcast,0,2011-11-03 02:55:00
10:55 PM,35.6,35.6,100,30.18,10.0,WNW,3.5,-,N/A,,Overcast,300,2011-11-03 03:55:00
11:55 PM,35.6,35.6,100,30.16,10.0,NNW,4.6,-,N/A,,Overcast,330,2011-11-03 04:55:00
11:57 PM,35.6,35.6,100,30.16,3.0,NW,4.6,-,N/A,,Clear,320,2011-11-03 04:57:00